Year,Month,Day,Hour,Minute,Value (Times are PST for temperature in C)
2010,04,01,00,00,1.30
2010,04,01,00,01,1.30
2010,04,01,00,02,1.30
2010,04,01,00,03,1.30
2010,04,01,00,04,1.20
2010,04,01,00,05,1.20
2010,04,01,00,06,1.20
2010,04,01,00,07,1.20
2010,04,01,00,08,1.20
2010,04,01,00,09,1.20
2010,04,01,00,10,1.10
2010,04,01,00,11,1.10
2010,04,01,00,12,1.10
2010,04,01,00,13,1.10
2010,04,01,00,14,1.10
2010,04,01,00,15,1.10
2010,04,01,00,16,1.10
2010,04,01,00,17,1.10
2010,04,01,00,18,1.10
2010,04,01,00,19,1.10
2010,04,01,00,20,1.10
2010,04,01,00,21,1.10
2010,04,01,00,22,1.10
2010,04,01,00,23,1.00
2010,04,01,00,24,1.00
2010,04,01,00,25,1.00
2010,04,01,00,26,1.00
2010,04,01,00,27,1.00
2010,04,01,00,28,1.00
2010,04,01,00,29,0.90
2010,04,01,00,30,0.90
2010,04,01,00,31,0.90
2010,04,01,00,32,0.90
2010,04,01,00,33,0.90
2010,04,01,00,34,1.00
2010,04,01,00,35,1.10
2010,04,01,00,36,1.20
2010,04,01,00,37,1.30
2010,04,01,00,38,1.30
2010,04,01,00,39,1.30
2010,04,01,00,40,1.50
2010,04,01,00,41,1.60
2010,04,01,00,42,1.60
2010,04,01,00,43,1.70
2010,04,01,00,44,1.70
2010,04,01,00,45,1.70
2010,04,01,00,46,1.70
2010,04,01,00,47,1.80
2010,04,01,00,48,1.80
2010,04,01,00,49,1.80
2010,04,01,00,50,1.80
2010,04,01,00,51,1.90
2010,04,01,00,52,1.90
2010,04,01,00,53,1.90
2010,04,01,00,54,2.00
2010,04,01,00,55,2.00
2010,04,01,00,56,2.10
2010,04,01,00,57,2.10
2010,04,01,00,58,2.20
2010,04,01,00,59,2.30
2010,04,01,01,00,2.30
2010,04,01,01,01,2.40
2010,04,01,01,02,2.50
2010,04,01,01,03,2.50
2010,04,01,01,04,2.60
2010,04,01,01,05,2.60
2010,04,01,01,06,2.60
2010,04,01,01,07,2.70
2010,04,01,01,08,2.70
2010,04,01,01,09,2.70
2010,04,01,01,10,2.70
2010,04,01,01,11,2.80
2010,04,01,01,12,2.80
2010,04,01,01,13,2.80
2010,04,01,01,14,2.80
2010,04,01,01,15,2.90
2010,04,01,01,16,2.90
2010,04,01,01,17,2.90
2010,04,01,01,18,2.90
2010,04,01,01,19,3.00
2010,04,01,01,20,3.00
2010,04,01,01,21,3.00
2010,04,01,01,22,3.10
2010,04,01,01,23,3.10
2010,04,01,01,24,3.10
2010,04,01,01,25,3.10
2010,04,01,01,26,3.10
2010,04,01,01,27,3.10
2010,04,01,01,28,3.10
2010,04,01,01,29,3.10
2010,04,01,01,30,3.10
2010,04,01,01,31,3.10
2010,04,01,01,32,3.10
2010,04,01,01,33,3.10
2010,04,01,01,34,3.10
2010,04,01,01,35,3.20
2010,04,01,01,36,3.20
2010,04,01,01,37,3.20
2010,04,01,01,38,3.20
2010,04,01,01,39,3.20
2010,04,01,01,40,3.20
2010,04,01,01,41,3.20
2010,04,01,01,42,3.20
2010,04,01,01,43,3.20
2010,04,01,01,44,3.20
2010,04,01,01,45,3.20
2010,04,01,01,46,3.20
2010,04,01,01,47,3.20
2010,04,01,01,48,3.20
2010,04,01,01,49,3.20
2010,04,01,01,50,3.20
2010,04,01,01,51,3.20
2010,04,01,01,52,3.20
2010,04,01,01,53,3.30
2010,04,01,01,54,3.30
2010,04,01,01,55,3.30
2010,04,01,01,56,3.30
2010,04,01,01,57,3.30
2010,04,01,01,58,3.30
2010,04,01,01,59,3.30
2010,04,01,02,00,3.30
2010,04,01,02,01,3.30
2010,04,01,02,02,3.30
2010,04,01,02,03,3.30
2010,04,01,02,04,3.30
2010,04,01,02,05,3.30
2010,04,01,02,06,3.30
2010,04,01,02,07,3.30
2010,04,01,02,08,3.30
2010,04,01,02,09,3.30
2010,04,01,02,10,3.30
2010,04,01,02,11,3.30
2010,04,01,02,12,3.30
2010,04,01,02,13,3.30
2010,04,01,02,14,3.30
2010,04,01,02,15,3.30
2010,04,01,02,16,3.30
2010,04,01,02,17,3.40
2010,04,01,02,18,3.40
2010,04,01,02,19,3.40
2010,04,01,02,20,3.40
2010,04,01,02,21,3.40
2010,04,01,02,22,3.40
2010,04,01,02,23,3.40
2010,04,01,02,24,3.40
2010,04,01,02,25,3.40
2010,04,01,02,26,3.40
2010,04,01,02,27,3.40
2010,04,01,02,28,3.40
2010,04,01,02,29,3.40
2010,04,01,02,30,3.40
2010,04,01,02,31,3.50
2010,04,01,02,32,3.50
2010,04,01,02,33,3.50
2010,04,01,02,34,3.40
2010,04,01,02,35,3.50
2010,04,01,02,36,3.50
2010,04,01,02,37,3.40
2010,04,01,02,38,3.50
2010,04,01,02,39,3.40
2010,04,01,02,40,3.40
2010,04,01,02,41,3.40
2010,04,01,02,42,3.40
2010,04,01,02,43,3.40
2010,04,01,02,44,3.40
2010,04,01,02,45,3.40
2010,04,01,02,46,3.40
2010,04,01,02,47,3.40
2010,04,01,02,48,3.40
2010,04,01,02,49,3.40
2010,04,01,02,50,3.40
2010,04,01,02,51,3.40
2010,04,01,02,52,3.40
2010,04,01,02,53,3.40
2010,04,01,02,54,3.40
2010,04,01,02,55,3.40
2010,04,01,02,56,3.30
2010,04,01,02,57,3.30
2010,04,01,02,58,3.30
2010,04,01,02,59,3.30
2010,04,01,03,00,3.30
2010,04,01,03,01,3.30
2010,04,01,03,02,3.20
2010,04,01,03,03,3.20
2010,04,01,03,04,3.20
2010,04,01,03,05,3.20
2010,04,01,03,06,3.20
2010,04,01,03,07,3.20
2010,04,01,03,08,3.20
2010,04,01,03,09,3.20
2010,04,01,03,10,3.20
2010,04,01,03,11,3.20
2010,04,01,03,12,3.20
2010,04,01,03,13,3.20
2010,04,01,03,14,3.20
2010,04,01,03,15,3.20
2010,04,01,03,16,3.20
2010,04,01,03,17,3.20
2010,04,01,03,18,3.20
2010,04,01,03,19,3.20
2010,04,01,03,20,3.20
2010,04,01,03,21,3.20
2010,04,01,03,22,3.20
2010,04,01,03,23,3.10
2010,04,01,03,24,3.10
2010,04,01,03,25,3.10
2010,04,01,03,26,3.10
2010,04,01,03,27,3.10
2010,04,01,03,28,3.10
2010,04,01,03,29,3.10
2010,04,01,03,30,3.10
2010,04,01,03,31,3.10
2010,04,01,03,32,3.00
2010,04,01,03,33,3.00
2010,04,01,03,34,3.00
2010,04,01,03,35,3.00
2010,04,01,03,36,3.00
2010,04,01,03,37,3.00
2010,04,01,03,38,3.00
2010,04,01,03,39,3.00
2010,04,01,03,40,3.00
2010,04,01,03,41,3.10
2010,04,01,03,42,3.10
2010,04,01,03,43,3.10
2010,04,01,03,44,3.10
2010,04,01,03,45,3.10
2010,04,01,03,46,3.20
2010,04,01,03,47,3.20
2010,04,01,03,48,3.20
2010,04,01,03,49,3.20
2010,04,01,03,50,3.20
2010,04,01,03,51,3.20
2010,04,01,03,52,3.20
2010,04,01,03,53,3.20
2010,04,01,03,54,3.20
2010,04,01,03,55,3.20
2010,04,01,03,56,3.20
2010,04,01,03,57,3.20
2010,04,01,03,58,3.20
2010,04,01,03,59,3.20
2010,04,01,04,00,3.20
2010,04,01,04,01,3.20
2010,04,01,04,02,3.20
2010,04,01,04,03,3.20
2010,04,01,04,04,3.10
2010,04,01,04,06,3.10
2010,04,01,04,07,3.10
2010,04,01,04,08,3.10
2010,04,01,04,09,3.10
2010,04,01,04,10,3.10
2010,04,01,04,11,3.10
2010,04,01,04,12,3.10
2010,04,01,04,13,3.00
2010,04,01,04,14,3.00
2010,04,01,04,15,3.00
2010,04,01,04,16,3.00
2010,04,01,04,17,3.00
2010,04,01,04,18,3.00
2010,04,01,04,19,3.00
2010,04,01,04,20,3.00
2010,04,01,04,21,2.90
2010,04,01,04,22,2.90
2010,04,01,04,23,2.90
2010,04,01,04,24,2.90
2010,04,01,04,25,2.90
2010,04,01,04,26,2.80
2010,04,01,04,27,2.80
2010,04,01,04,28,2.80
2010,04,01,04,29,2.70
2010,04,01,04,30,2.70
2010,04,01,04,31,2.70
2010,04,01,04,32,2.60
2010,04,01,04,33,2.60
2010,04,01,04,34,2.50
2010,04,01,04,35,2.50
2010,04,01,04,36,2.40
2010,04,01,04,37,2.40
2010,04,01,04,38,2.30
2010,04,01,04,39,2.30
2010,04,01,04,40,2.20
2010,04,01,04,41,2.20
2010,04,01,04,42,2.20
2010,04,01,04,43,2.10
2010,04,01,04,44,2.10
2010,04,01,04,45,2.00
2010,04,01,04,46,2.00
2010,04,01,04,47,1.90
2010,04,01,04,48,1.90
2010,04,01,04,49,1.90
2010,04,01,04,50,1.90
2010,04,01,04,51,1.80
2010,04,01,04,52,1.80
2010,04,01,04,53,1.80
2010,04,01,04,54,1.80
2010,04,01,04,55,1.80
2010,04,01,04,56,1.70
2010,04,01,04,57,1.70
2010,04,01,04,58,1.70
2010,04,01,04,59,1.70
2010,04,01,05,00,1.60
2010,04,01,05,01,1.60
2010,04,01,05,02,1.60
2010,04,01,05,03,1.60
2010,04,01,05,04,1.60
2010,04,01,05,05,1.50
2010,04,01,05,06,1.50
2010,04,01,05,07,1.50
2010,04,01,05,08,1.50
2010,04,01,05,09,1.40
2010,04,01,05,10,1.40
2010,04,01,05,11,1.40
2010,04,01,05,12,1.40
2010,04,01,05,13,1.30
2010,04,01,05,14,1.30
2010,04,01,05,15,1.30
2010,04,01,05,16,1.30
2010,04,01,05,17,1.30
2010,04,01,05,18,1.30
2010,04,01,05,19,1.30
2010,04,01,05,20,1.30
2010,04,01,05,21,1.30
2010,04,01,05,22,1.30
2010,04,01,05,23,1.30
2010,04,01,05,24,1.30
2010,04,01,05,25,1.30
2010,04,01,05,26,1.30
2010,04,01,05,27,1.40
2010,04,01,05,28,1.50
2010,04,01,05,29,1.60
2010,04,01,05,30,1.60
2010,04,01,05,31,1.70
2010,04,01,05,32,1.70
2010,04,01,05,33,1.70
2010,04,01,05,34,1.70
2010,04,01,05,35,1.70
2010,04,01,05,36,1.70
2010,04,01,05,37,1.60
2010,04,01,05,38,1.60
2010,04,01,05,39,1.60
2010,04,01,05,40,1.50
2010,04,01,05,41,1.50
2010,04,01,05,42,1.50
2010,04,01,05,43,1.40
2010,04,01,05,44,1.40
2010,04,01,05,45,1.40
2010,04,01,05,46,1.30
2010,04,01,05,47,1.30
2010,04,01,05,48,1.30
2010,04,01,05,49,1.30
2010,04,01,05,50,1.30
2010,04,01,05,51,1.30
2010,04,01,05,52,1.30
2010,04,01,05,53,1.30
2010,04,01,05,54,1.30
2010,04,01,05,55,1.30
2010,04,01,05,56,1.30
2010,04,01,05,57,1.30
2010,04,01,05,58,1.30
2010,04,01,05,59,1.30
2010,04,01,06,00,1.30
2010,04,01,06,01,1.30
2010,04,01,06,02,1.20
2010,04,01,06,03,1.20
2010,04,01,06,04,1.20
2010,04,01,06,05,1.20
2010,04,01,06,06,1.20
2010,04,01,06,07,1.20
2010,04,01,06,08,1.20
2010,04,01,06,09,1.20
2010,04,01,06,10,1.20
2010,04,01,06,11,1.20
2010,04,01,06,12,1.30
2010,04,01,06,13,1.30
2010,04,01,06,14,1.30
2010,04,01,06,15,1.30
2010,04,01,06,16,1.30
2010,04,01,06,17,1.30
2010,04,01,06,18,1.30
2010,04,01,06,19,1.30
2010,04,01,06,20,1.30
2010,04,01,06,21,1.30
2010,04,01,06,22,1.30
2010,04,01,06,23,1.30
2010,04,01,06,24,1.30
2010,04,01,06,25,1.30
2010,04,01,06,26,1.30
2010,04,01,06,27,1.30
2010,04,01,06,28,1.30
2010,04,01,06,29,1.30
2010,04,01,06,30,1.30
2010,04,01,06,31,1.30
2010,04,01,06,32,1.40
2010,04,01,06,33,1.50
2010,04,01,06,34,1.50
2010,04,01,06,35,1.60
2010,04,01,06,36,1.60
2010,04,01,06,37,1.60
2010,04,01,06,38,1.60
2010,04,01,06,39,1.70
2010,04,01,06,40,1.70
2010,04,01,06,41,1.70
2010,04,01,06,42,1.70
2010,04,01,06,43,1.70
2010,04,01,06,44,1.70
2010,04,01,06,45,1.70
2010,04,01,06,46,1.70
2010,04,01,06,47,1.70
2010,04,01,06,48,1.70
2010,04,01,06,49,1.70
2010,04,01,06,50,1.70
2010,04,01,06,51,1.80
2010,04,01,06,52,1.80
2010,04,01,06,53,1.80
2010,04,01,06,54,1.80
2010,04,01,06,55,1.80
2010,04,01,06,56,1.80
2010,04,01,06,57,1.80
2010,04,01,06,58,1.80
2010,04,01,06,59,1.80
2010,04,01,07,00,1.80
2010,04,01,07,01,1.80
2010,04,01,07,02,1.80
2010,04,01,07,03,1.80
2010,04,01,07,04,1.80
2010,04,01,07,05,1.80
2010,04,01,07,06,1.80
2010,04,01,07,07,1.80
2010,04,01,07,08,1.80
2010,04,01,07,09,1.80
2010,04,01,07,10,1.80
2010,04,01,07,11,1.90
2010,04,01,07,12,1.90
2010,04,01,07,13,1.90
2010,04,01,07,14,1.80
2010,04,01,07,15,1.80
2010,04,01,07,16,1.90
2010,04,01,07,17,1.80
2010,04,01,07,18,1.80
2010,04,01,07,19,1.90
2010,04,01,07,20,1.90
2010,04,01,07,21,1.90
2010,04,01,07,22,1.90
2010,04,01,07,23,1.90
2010,04,01,07,24,1.90
2010,04,01,07,25,1.90
2010,04,01,07,26,1.90
2010,04,01,07,27,1.90
2010,04,01,07,28,1.90
2010,04,01,07,29,1.90
2010,04,01,07,30,1.90
2010,04,01,07,31,1.90
2010,04,01,07,32,1.90
2010,04,01,07,33,1.90
2010,04,01,07,34,1.90
2010,04,01,07,35,1.90
2010,04,01,07,36,1.90
2010,04,01,07,37,1.90
2010,04,01,07,38,1.90
2010,04,01,07,39,1.90
2010,04,01,07,40,2.00
2010,04,01,07,41,2.00
2010,04,01,07,42,2.00
2010,04,01,07,43,2.00
2010,04,01,07,44,2.00
2010,04,01,07,45,2.00
2010,04,01,07,46,2.00
2010,04,01,07,47,2.00
2010,04,01,07,48,2.10
2010,04,01,07,49,2.10
2010,04,01,07,50,2.10
2010,04,01,07,51,2.10
2010,04,01,07,52,2.10
2010,04,01,07,53,2.10
2010,04,01,07,54,2.10
2010,04,01,07,55,2.10
2010,04,01,07,56,2.10
2010,04,01,07,57,2.20
2010,04,01,07,58,2.20
2010,04,01,07,59,2.20
2010,04,01,08,00,2.20
2010,04,01,08,01,2.20
2010,04,01,08,02,2.20
2010,04,01,08,03,2.20
2010,04,01,08,04,2.20
2010,04,01,08,05,2.20
2010,04,01,08,06,2.30
2010,04,01,08,07,2.30
2010,04,01,08,08,2.30
2010,04,01,08,09,2.30
2010,04,01,08,10,2.30
2010,04,01,08,11,2.30
2010,04,01,08,12,2.40
2010,04,01,08,13,2.40
2010,04,01,08,14,2.40
2010,04,01,08,15,2.40
2010,04,01,08,16,2.40
2010,04,01,08,17,2.40
2010,04,01,08,18,2.40
2010,04,01,08,19,2.40
2010,04,01,08,20,2.40
2010,04,01,08,21,2.40
2010,04,01,08,22,2.40
2010,04,01,08,23,2.40
2010,04,01,08,24,2.40
2010,04,01,08,25,2.40
2010,04,01,08,26,2.40
2010,04,01,08,27,2.50
2010,04,01,08,28,2.50
2010,04,01,08,29,2.50
2010,04,01,08,30,2.50
2010,04,01,08,31,2.50
2010,04,01,08,32,2.60
2010,04,01,08,33,2.60
2010,04,01,08,34,2.60
2010,04,01,08,35,2.60
2010,04,01,08,36,2.60
2010,04,01,08,37,2.60
2010,04,01,08,38,2.60
2010,04,01,08,39,2.60
2010,04,01,08,40,2.60
2010,04,01,08,41,2.70
2010,04,01,08,42,2.70
2010,04,01,08,43,2.70
2010,04,01,08,44,2.70
2010,04,01,08,45,2.70
2010,04,01,08,46,2.80
2010,04,01,08,47,2.80
2010,04,01,08,48,2.80
2010,04,01,08,49,2.80
2010,04,01,08,50,2.80
2010,04,01,08,51,2.80
2010,04,01,08,52,2.80
2010,04,01,08,53,2.80
2010,04,01,08,54,2.80
2010,04,01,08,55,2.80
2010,04,01,08,56,2.80
2010,04,01,08,57,2.90
2010,04,01,08,58,2.90
2010,04,01,08,59,2.90
2010,04,01,09,00,2.90
2010,04,01,09,01,2.90
2010,04,01,09,02,2.90
2010,04,01,09,03,3.00
2010,04,01,09,04,3.00
2010,04,01,09,05,3.10
2010,04,01,09,06,3.10
2010,04,01,09,07,3.10
2010,04,01,09,08,3.10
2010,04,01,09,09,3.10
2010,04,01,09,10,3.10
2010,04,01,09,11,3.10
2010,04,01,09,12,3.20
2010,04,01,09,13,3.20
2010,04,01,09,14,3.20
2010,04,01,09,15,3.20
2010,04,01,09,16,3.20
2010,04,01,09,17,3.30
2010,04,01,09,18,3.30
2010,04,01,09,19,3.30
2010,04,01,09,20,3.30
2010,04,01,09,21,3.30
2010,04,01,09,22,3.40
2010,04,01,09,23,3.40
2010,04,01,09,24,3.40
2010,04,01,09,25,3.40
2010,04,01,09,26,3.50
2010,04,01,09,27,3.50
2010,04,01,09,28,3.50
2010,04,01,09,29,3.50
2010,04,01,09,30,3.60
2010,04,01,09,31,3.60
2010,04,01,09,32,3.60
2010,04,01,09,33,3.60
2010,04,01,09,34,3.60
2010,04,01,09,35,3.70
2010,04,01,09,36,3.70
2010,04,01,09,37,3.70
2010,04,01,09,38,3.70
2010,04,01,09,39,3.80
2010,04,01,09,40,3.80
2010,04,01,09,41,3.80
2010,04,01,09,42,3.80
2010,04,01,09,43,3.90
2010,04,01,09,44,3.90
2010,04,01,09,45,4.00
2010,04,01,09,46,4.00
2010,04,01,09,47,4.10
2010,04,01,09,48,4.10
2010,04,01,09,49,4.10
2010,04,01,09,50,4.10
2010,04,01,09,51,4.20
2010,04,01,09,52,4.20
2010,04,01,09,53,4.20
2010,04,01,09,54,4.20
2010,04,01,09,55,4.20
2010,04,01,09,56,4.30
2010,04,01,09,57,4.30
2010,04,01,09,58,4.30
2010,04,01,09,59,4.30
2010,04,01,10,00,4.30
2010,04,01,10,01,4.30
2010,04,01,10,02,4.30
2010,04,01,10,03,4.40
2010,04,01,10,04,4.40
2010,04,01,10,05,4.40
2010,04,01,10,06,4.40
2010,04,01,10,07,4.50
2010,04,01,10,08,4.50
2010,04,01,10,09,4.60
2010,04,01,10,10,4.60
2010,04,01,10,11,4.60
2010,04,01,10,12,4.60
2010,04,01,10,13,4.60
2010,04,01,10,14,4.60
2010,04,01,10,15,4.60
2010,04,01,10,16,4.60
2010,04,01,10,17,4.60
2010,04,01,10,18,4.60
2010,04,01,10,19,4.60
2010,04,01,10,20,4.70
2010,04,01,10,21,4.70
2010,04,01,10,22,4.80
2010,04,01,10,23,4.80
2010,04,01,10,24,4.90
2010,04,01,10,25,5.00
2010,04,01,10,26,5.00
2010,04,01,10,27,5.10
2010,04,01,10,28,5.10
2010,04,01,10,29,5.10
2010,04,01,10,30,5.10
2010,04,01,10,31,5.10
2010,04,01,10,32,5.10
2010,04,01,10,33,5.10
2010,04,01,10,34,5.10
2010,04,01,10,35,5.10
2010,04,01,10,36,5.10
2010,04,01,10,37,5.10
2010,04,01,10,38,5.20
2010,04,01,10,39,5.20
2010,04,01,10,40,5.30
2010,04,01,10,41,5.30
2010,04,01,10,42,5.40
2010,04,01,10,43,5.50
2010,04,01,10,44,5.60
2010,04,01,10,45,5.60
2010,04,01,10,46,5.60
2010,04,01,10,47,5.60
2010,04,01,10,48,5.60
2010,04,01,10,49,5.70
2010,04,01,10,50,5.70
2010,04,01,10,51,5.70
2010,04,01,10,52,5.70
2010,04,01,10,53,5.70
2010,04,01,10,54,5.80
2010,04,01,10,55,5.80
2010,04,01,10,56,5.80
2010,04,01,10,57,5.80
2010,04,01,10,58,5.90
2010,04,01,10,59,5.90
2010,04,01,11,00,5.90
2010,04,01,11,01,6.00
2010,04,01,11,02,6.00
2010,04,01,11,03,5.90
2010,04,01,11,04,5.90
2010,04,01,11,05,5.90
2010,04,01,11,06,5.90
2010,04,01,11,07,5.90
2010,04,01,11,08,5.90
2010,04,01,11,09,5.90
2010,04,01,11,10,5.90
2010,04,01,11,11,5.90
2010,04,01,11,12,5.90
2010,04,01,11,13,6.00
2010,04,01,11,14,6.00
2010,04,01,11,15,6.10
2010,04,01,11,16,6.10
2010,04,01,11,17,6.10
2010,04,01,11,18,6.10
2010,04,01,11,19,6.20
2010,04,01,11,20,6.20
2010,04,01,11,21,6.20
2010,04,01,11,22,6.20
2010,04,01,11,23,6.30
2010,04,01,11,24,6.20
2010,04,01,11,25,6.20
2010,04,01,11,26,6.20
2010,04,01,11,27,6.20
2010,04,01,11,28,6.20
2010,04,01,11,29,6.20
2010,04,01,11,30,6.20
2010,04,01,11,31,6.20
2010,04,01,11,32,6.20
2010,04,01,11,33,6.30
2010,04,01,11,34,6.30
2010,04,01,11,35,6.30
2010,04,01,11,36,6.30
2010,04,01,11,37,6.30
2010,04,01,11,38,6.30
2010,04,01,11,39,6.30
2010,04,01,11,40,6.30
2010,04,01,11,41,6.30
2010,04,01,11,42,6.20
2010,04,01,11,43,6.10
2010,04,01,11,44,6.10
2010,04,01,11,45,6.10
2010,04,01,11,46,6.10
2010,04,01,11,47,6.10
2010,04,01,11,48,6.20
2010,04,01,11,49,6.20
2010,04,01,11,50,6.20
2010,04,01,11,51,6.30
2010,04,01,11,52,6.30
2010,04,01,11,53,6.40
2010,04,01,11,54,6.40
2010,04,01,11,55,6.50
2010,04,01,11,56,6.60
2010,04,01,11,57,6.60
2010,04,01,11,58,6.70
2010,04,01,11,59,6.80
2010,04,01,12,00,6.90
2010,04,01,12,01,7.00
2010,04,01,12,02,7.00
2010,04,01,12,03,7.10
2010,04,01,12,04,7.10
2010,04,01,12,05,7.10
2010,04,01,12,06,7.10
2010,04,01,12,07,7.10
2010,04,01,12,08,7.10
2010,04,01,12,09,7.10
2010,04,01,12,10,7.20
2010,04,01,12,11,7.20
2010,04,01,12,12,7.20
2010,04,01,12,13,7.20
2010,04,01,12,14,7.30
2010,04,01,12,15,7.30
2010,04,01,12,16,7.40
2010,04,01,12,17,7.40
2010,04,01,12,18,7.40
2010,04,01,12,19,7.50
2010,04,01,12,20,7.50
2010,04,01,12,21,7.50
2010,04,01,12,22,7.50
2010,04,01,12,23,7.50
2010,04,01,12,24,7.60
2010,04,01,12,25,7.60
2010,04,01,12,26,7.70
2010,04,01,12,27,7.70
2010,04,01,12,28,7.70
2010,04,01,12,29,7.70
2010,04,01,12,30,7.80
2010,04,01,12,31,7.80
2010,04,01,12,32,7.80
2010,04,01,12,33,7.80
2010,04,01,12,34,7.80
2010,04,01,12,35,7.90
2010,04,01,12,36,8.00
2010,04,01,12,37,8.00
2010,04,01,12,38,8.00
2010,04,01,12,39,8.10
2010,04,01,12,40,8.10
2010,04,01,12,41,8.20
2010,04,01,12,42,8.20
2010,04,01,12,43,8.20
2010,04,01,12,44,8.10
2010,04,01,12,45,8.10
2010,04,01,12,46,8.00
2010,04,01,12,47,8.00
2010,04,01,12,48,8.00
2010,04,01,12,49,7.90
2010,04,01,12,50,7.90
2010,04,01,12,51,7.90
2010,04,01,12,52,8.00
2010,04,01,12,53,8.00
2010,04,01,12,54,8.00
2010,04,01,12,55,7.90
2010,04,01,12,56,7.80
2010,04,01,12,57,7.60
2010,04,01,12,58,7.40
2010,04,01,12,59,7.30
2010,04,01,13,00,7.00
2010,04,01,13,01,6.80
2010,04,01,13,02,6.60
2010,04,01,13,03,6.40
2010,04,01,13,04,6.30
2010,04,01,13,05,6.10
2010,04,01,13,06,5.90
2010,04,01,13,07,5.70
2010,04,01,13,08,5.50
2010,04,01,13,09,5.40
2010,04,01,13,10,5.20
2010,04,01,13,11,5.10
2010,04,01,13,12,5.10
2010,04,01,13,13,5.00
2010,04,01,13,14,4.90
2010,04,01,13,15,4.90
2010,04,01,13,16,4.80
2010,04,01,13,17,4.80
2010,04,01,13,18,4.80
2010,04,01,13,19,4.80
2010,04,01,13,20,4.90
2010,04,01,13,21,4.90
2010,04,01,13,22,4.90
2010,04,01,13,23,4.80
2010,04,01,13,24,4.90
2010,04,01,13,25,4.90
2010,04,01,13,26,4.90
2010,04,01,13,27,4.90
2010,04,01,13,28,5.00
2010,04,01,13,29,5.00
2010,04,01,13,30,5.00
2010,04,01,13,31,5.10
2010,04,01,13,32,5.10
2010,04,01,13,33,5.20
2010,04,01,13,34,5.20
2010,04,01,13,35,5.20
2010,04,01,13,36,5.20
2010,04,01,13,37,5.30
2010,04,01,13,38,5.40
2010,04,01,13,39,5.50
2010,04,01,13,40,5.50
2010,04,01,13,41,5.60
2010,04,01,13,42,5.70
2010,04,01,13,43,5.70
2010,04,01,13,44,5.70
2010,04,01,13,45,5.80
2010,04,01,13,46,5.80
2010,04,01,13,47,5.70
2010,04,01,13,48,5.70
2010,04,01,13,49,5.70
2010,04,01,13,50,5.70
2010,04,01,13,51,5.70
2010,04,01,13,52,5.70
2010,04,01,13,53,5.70
2010,04,01,13,54,5.70
2010,04,01,13,55,5.80
2010,04,01,13,56,5.80
2010,04,01,13,57,5.80
2010,04,01,13,58,5.90
2010,04,01,13,59,5.90
2010,04,01,14,00,5.90
2010,04,01,14,01,6.00
2010,04,01,14,02,6.10
2010,04,01,14,03,6.10
2010,04,01,14,04,6.10
2010,04,01,14,05,6.20
2010,04,01,14,06,6.20
2010,04,01,14,07,6.30
2010,04,01,14,08,6.40
2010,04,01,14,09,6.50
2010,04,01,14,10,6.60
2010,04,01,14,11,6.70
2010,04,01,14,12,6.70
2010,04,01,14,13,6.80
2010,04,01,14,14,6.80
2010,04,01,14,15,6.90
2010,04,01,14,16,6.90
2010,04,01,14,17,6.90
2010,04,01,14,18,6.90
2010,04,01,14,19,6.90
2010,04,01,14,20,6.90
2010,04,01,14,21,6.80
2010,04,01,14,22,6.70
2010,04,01,14,23,6.70
2010,04,01,14,24,6.70
2010,04,01,14,25,6.60
2010,04,01,14,26,6.60
2010,04,01,14,27,6.60
2010,04,01,14,28,6.60
2010,04,01,14,29,6.70
2010,04,01,14,30,6.70
2010,04,01,14,31,6.70
2010,04,01,14,32,6.70
2010,04,01,14,33,6.70
2010,04,01,14,34,6.60
2010,04,01,14,35,6.40
2010,04,01,14,36,6.10
2010,04,01,14,37,5.90
2010,04,01,14,38,5.80
2010,04,01,14,39,5.70
2010,04,01,14,40,5.60
2010,04,01,14,41,5.40
2010,04,01,14,42,5.20
2010,04,01,14,43,5.00
2010,04,01,14,44,4.70
2010,04,01,14,45,4.40
2010,04,01,14,46,4.20
2010,04,01,14,47,4.00
2010,04,01,14,48,3.90
2010,04,01,14,49,3.80
2010,04,01,14,50,3.70
2010,04,01,14,51,3.60
2010,04,01,14,52,3.60
2010,04,01,14,53,3.50
2010,04,01,14,54,3.50
2010,04,01,14,55,3.50
2010,04,01,14,56,3.50
2010,04,01,14,57,3.50
2010,04,01,14,58,3.60
2010,04,01,14,59,3.60
2010,04,01,15,00,3.70
2010,04,01,15,01,3.80
2010,04,01,15,02,3.90
2010,04,01,15,03,3.90
2010,04,01,15,04,4.00
2010,04,01,15,05,4.10
2010,04,01,15,06,4.20
2010,04,01,15,07,4.20
2010,04,01,15,08,4.30
2010,04,01,15,09,4.30
2010,04,01,15,10,4.40
2010,04,01,15,11,4.40
2010,04,01,15,12,4.50
2010,04,01,15,13,4.60
2010,04,01,15,14,4.60
2010,04,01,15,15,4.70
2010,04,01,15,16,4.70
2010,04,01,15,17,4.80
2010,04,01,15,18,4.80
2010,04,01,15,19,4.90
2010,04,01,15,20,4.90
2010,04,01,15,21,5.00
2010,04,01,15,22,5.10
2010,04,01,15,23,5.10
2010,04,01,15,24,5.10
2010,04,01,15,25,5.10
2010,04,01,15,26,5.10
2010,04,01,15,27,5.10
2010,04,01,15,28,5.00
2010,04,01,15,29,5.00
2010,04,01,15,30,5.00
2010,04,01,15,31,5.00
2010,04,01,15,32,5.00
2010,04,01,15,33,4.90
2010,04,01,15,34,4.90
2010,04,01,15,35,4.90
2010,04,01,15,36,4.80
2010,04,01,15,37,4.80
2010,04,01,15,38,4.70
2010,04,01,15,39,4.70
2010,04,01,15,40,4.70
2010,04,01,15,41,4.60
2010,04,01,15,42,4.60
2010,04,01,15,43,4.60
2010,04,01,15,44,4.50
2010,04,01,15,45,4.50
2010,04,01,15,46,4.50
2010,04,01,15,47,4.50
2010,04,01,15,48,4.50
2010,04,01,15,49,4.50
2010,04,01,15,50,4.40
2010,04,01,15,51,4.40
2010,04,01,15,52,4.40
2010,04,01,15,53,4.30
2010,04,01,15,54,4.30
2010,04,01,15,55,4.30
2010,04,01,15,56,4.30
2010,04,01,15,57,4.30
2010,04,01,15,58,4.30
2010,04,01,15,59,4.30
2010,04,01,16,00,4.30
2010,04,01,16,01,4.30
2010,04,01,16,02,4.30
2010,04,01,16,03,4.30
2010,04,01,16,04,4.30
2010,04,01,16,05,4.20
2010,04,01,16,06,4.20
2010,04,01,16,07,4.20
2010,04,01,16,08,4.30
2010,04,01,16,09,4.40
2010,04,01,16,10,4.40
2010,04,01,16,11,4.40
2010,04,01,16,12,4.50
2010,04,01,16,13,4.60
2010,04,01,16,14,4.60
2010,04,01,16,15,4.60
2010,04,01,16,16,4.60
2010,04,01,16,17,4.70
2010,04,01,16,18,4.70
2010,04,01,16,19,4.70
2010,04,01,16,20,4.70
2010,04,01,16,21,4.80
2010,04,01,16,22,4.80
2010,04,01,16,23,4.80
2010,04,01,16,24,4.80
2010,04,01,16,25,4.80
2010,04,01,16,26,4.80
2010,04,01,16,27,4.80
2010,04,01,16,28,4.80
2010,04,01,16,29,4.80
2010,04,01,16,30,4.80
2010,04,01,16,31,4.90
2010,04,01,16,32,5.00
2010,04,01,16,33,5.00
2010,04,01,16,34,5.10
2010,04,01,16,35,5.10
2010,04,01,16,36,5.20
2010,04,01,16,37,5.20
2010,04,01,16,38,5.20
2010,04,01,16,39,5.10
2010,04,01,16,40,5.10
2010,04,01,16,41,5.10
2010,04,01,16,42,5.10
2010,04,01,16,43,5.00
2010,04,01,16,44,5.00
2010,04,01,16,45,4.90
2010,04,01,16,46,4.80
2010,04,01,16,47,4.80
2010,04,01,16,48,4.70
2010,04,01,16,49,4.60
2010,04,01,16,50,4.60
2010,04,01,16,51,4.60
2010,04,01,16,52,4.60
2010,04,01,16,53,4.60
2010,04,01,16,54,4.60
2010,04,01,16,55,4.60
2010,04,01,16,56,4.60
2010,04,01,16,57,4.60
2010,04,01,16,58,4.60
2010,04,01,16,59,4.50
2010,04,01,17,00,4.40
2010,04,01,17,01,4.40
2010,04,01,17,02,4.40
2010,04,01,17,03,4.30
2010,04,01,17,04,4.30
2010,04,01,17,05,4.30
2010,04,01,17,06,4.30
2010,04,01,17,07,4.20
2010,04,01,17,08,4.20
2010,04,01,17,09,4.20
2010,04,01,17,10,4.20
2010,04,01,17,11,4.10
2010,04,01,17,12,4.10
2010,04,01,17,13,4.10
2010,04,01,17,14,4.10
2010,04,01,17,15,4.20
2010,04,01,17,16,4.20
2010,04,01,17,17,4.20
2010,04,01,17,18,4.30
2010,04,01,17,19,4.30
2010,04,01,17,20,4.30
2010,04,01,17,21,4.30
2010,04,01,17,22,4.30
2010,04,01,17,23,4.40
2010,04,01,17,24,4.40
2010,04,01,17,25,4.40
2010,04,01,17,26,4.40
2010,04,01,17,27,4.30
2010,04,01,17,28,4.30
2010,04,01,17,29,4.30
2010,04,01,17,30,4.30
2010,04,01,17,31,4.20
2010,04,01,17,32,4.30
2010,04,01,17,33,4.30
2010,04,01,17,34,4.30
2010,04,01,17,35,4.40
2010,04,01,17,36,4.40
2010,04,01,17,37,4.50
2010,04,01,17,38,4.50
2010,04,01,17,39,4.50
2010,04,01,17,40,4.60
2010,04,01,17,41,4.60
2010,04,01,17,42,4.60
2010,04,01,17,43,4.60
2010,04,01,17,44,4.60
2010,04,01,17,45,4.60
2010,04,01,17,46,4.60
2010,04,01,17,47,4.60
2010,04,01,17,48,4.60
2010,04,01,17,49,4.60
2010,04,01,17,50,4.60
2010,04,01,17,51,4.60
2010,04,01,17,52,4.60
2010,04,01,17,53,4.60
2010,04,01,17,54,4.60
2010,04,01,17,55,4.60
2010,04,01,17,56,4.60
2010,04,01,17,57,4.60
2010,04,01,17,58,4.60
2010,04,01,17,59,4.60
2010,04,01,18,00,4.70
2010,04,01,18,01,4.70
2010,04,01,18,02,4.70
2010,04,01,18,03,4.70
2010,04,01,18,04,4.70
2010,04,01,18,05,4.70
2010,04,01,18,06,4.70
2010,04,01,18,07,4.70